Back to catalog

KUIPER-00113

AliveCommunicationsLEO
NORAD 65948·PAYLOAD·🇺🇸 United States

Launched Oct 14, 2025 from Cape Canaveral Space Force Station

Loading…

Next Passes (next 24 hours)

TLE

FreshSource: CelesTrak SupGP

Epoch: Sep 14, 2026, 13:04 UTC

1 65948C 25228B   26257.54473380  .00003923  00000+0  51363-3 0  2571
2 65948  51.8970 240.4455 0000873  72.5504 270.8836 14.79919503    12

Track KUIPER-00113 in real time with AllMySat

Download on the App Store